View from above orbital plane
|
View from above satellite
|
Ground track
|
The orbit data is extracted from the following two-line orbital elements,
1 22U 59009A 21102.82891226 .00000273 00000-0 43073-4 0 9994
2 22 50.2834 137.0562 0138799 322.7418 36.3961 14.95480279270125
Epoch (UTC): | 12 April 2021 19:53:38 |
Eccentricity: | 0.0138799 |
inclination: | 50.2834° |
perigee height: | 484 km |
apogee height: | 677 km |
right ascension of ascending node: | 137.0562° |
argument of perigee: | 322.7418° |
revolutions per day: | 14.95480279 |
mean anomaly at epoch: | 36.3961° |
orbit number at epoch: | 27012 |
The dashed part of the orbit path shows where the satellite is in the earth's shadow,
|
|